Flag for United Kingdom Weather past 2 weeks in Huddersfield, England, United Kingdom

54 °F

Passing clouds.

Feels Like: 54 °F
Forecast: 46 / 57 °F
Wind: 1 mph from North

Location: Leeds And Bradford

Current Time: Oct 6, 2015 at 9:44:03 PM

Latest Report: Oct 6, 2015 at 9:20 PM

Visibility: 6 mi

Pressure: 29.47 "Hg

Humidity: 100%

Dew point: 54 °F

Location of HuddersfieldLocation

Historic Weather in Huddersfield — Graph


Huddersfield temperature yesterday

Maximum temperature yesterday: 59 °F (at 3:50 PM)
Minimum temperature yesterday: 43 °F (at 12:20 AM)
Average temperature yesterday: 52 °F

Past Weeks' High & Low Weather Summary

High63 °F (Oct 2, 2:50 PM)100% (Sep 21, 9:20 PM)30.69 "Hg (Sep 21, 9:20 PM)
Low37 °F (Oct 2, 5:50 AM)48% (Sep 30, 4:20 PM)29.42 "Hg (Oct 6, 4:50 AM)
Average51 °F90%30.13 "Hg
* Reported Sep 21 8:20 PM — Oct 6 8:20 PM, Huddersfield, Weather by CustomWeather, © 2015

Note: Actual official high and low records may vary slightly from our data, if they occured in-between our weather recording intervals... More about our weather records


Huddersfield weather history for previous 24 hours

Time TempWeatherWind HumidityBarometerVisibility
8:20 PM
Tue, Oct 6
55 °FLight rain. Partly cloudy.3 mph100%29.45 "Hg4 mi
7:50 PM55 °FRain showers. Passing clouds.6 mph100%29.45 "Hg2 mi
7:20 PM59 °FThunderstorms. Fog.7 mph100%29.45 "Hg3 mi
6:50 PM59 °FFog.6 mph100%29.45 "Hg2 mi
6:20 PM59 °FScattered showers. Scattered clouds.5 mph100%29.42 "Hg4 mi
5:50 PM59 °FScattered clouds.5 mph100%29.42 "HgN/A
5:20 PM59 °FSprinkles. Scattered clouds.2 mph100%29.42 "HgN/A
4:50 PM59 °FScattered showers. Scattered clouds.3 mph100%29.42 "HgN/A
4:20 PM61 °FSprinkles. Passing clouds.6 mph88%29.42 "HgN/A
3:50 PM61 °FPassing clouds.7 mph88%29.42 "HgN/A
3:20 PM61 °FPassing clouds.9 mph88%29.42 "HgN/A
2:50 PM61 °FPassing clouds.9 mph88%29.42 "HgN/A
2:20 PM63 °FPassing clouds.9 mph83%29.42 "HgN/A
1:50 PM61 °FPassing clouds.10 mph83%29.42 "HgN/A
1:20 PM63 °FScattered clouds.8 mph83%29.42 "HgN/A
12:50 PM61 °FScattered clouds.10 mph83%29.42 "HgN/A
12:20 PM61 °FScattered clouds.8 mph88%29.42 "HgN/A
11:50 AM61 °FPartly sunny.7 mph88%29.42 "HgN/A
11:20 AM61 °FPartly sunny.8 mph100%29.42 "HgN/A
10:50 AM59 °FBroken clouds.6 mph100%29.42 "Hg5 mi
10:20 AM59 °FFog.7 mph100%29.42 "Hg2 mi
9:50 AM57 °FFog.7 mph100%29.42 "Hg1 mi
9:20 AM57 °FDrizzle. Fog.8 mph100%29.42 "Hg1 mi
8:50 AM57 °FDrizzle. Fog.8 mph100%29.42 "Hg0 mi
8:20 AM57 °FDrizzle. Fog.9 mph100%29.42 "Hg0 mi
7:50 AM57 °FDrizzle. Fog.9 mph100%29.42 "Hg1 mi
7:20 AM57 °FDrizzle. Fog.9 mph100%29.42 "Hg0 mi
6:50 AM57 °FDrizzle. Fog.12 mph100%29.42 "Hg1 mi
6:20 AM57 °FDrizzle. Fog.10 mph100%29.42 "Hg0 mi
5:20 AM57 °FSprinkles. Fog.10 mph100%29.42 "Hg1 mi
4:50 AM57 °FSprinkles. Fog.12 mph100%29.42 "Hg1 mi
4:20 AM57 °FSprinkles. Fog.12 mph100%29.45 "Hg1 mi
3:50 AM57 °FSprinkles. Fog.10 mph100%29.45 "Hg1 mi
3:20 AM57 °FRain showers. Fog.13 mph100%29.45 "Hg1 mi
2:50 AM57 °FRain showers. Fog.13 mph100%29.45 "Hg1 mi
2:20 AM57 °FRain showers. Fog.12 mph100%29.45 "Hg1 mi
1:50 AM59 °FRain showers. Fog.12 mph100%29.47 "Hg1 mi
1:20 AM59 °FRain showers. Fog.12 mph100%29.47 "Hg1 mi
12:50 AM59 °FSprinkles. Fog.10 mph100%29.47 "Hg1 mi
12:20 AM59 °FSprinkles. Fog.9 mph100%29.47 "Hg1 mi
11:50 PM
Mon, Oct 5
59 °FFog.9 mph100%29.50 "Hg1 mi
11:20 PM59 °FFog.10 mph100%29.50 "Hg1 mi
10:20 PM59 °FSprinkles. Fog.10 mph100%29.50 "Hg1 mi
9:50 PM59 °FFog.9 mph100%29.50 "Hg1 mi
9:20 PM59 °FFog.12 mph100%29.50 "Hg1 mi
Weather by CustomWeather, © 2015

See weather overviewHow to use our weather pages